Location: Alfortville
(48.8058°N, 2.4204°E)
Time: 02:59:32
(UTC+00:00)

Envisat - Pass Details

Date: 01 December 2022
Orbit: 763 x 765 km, 98.2° (Epoch: 28 January)

Event Time Altitude Azimuth Distance (km) Brightness Sun altitude
Rises 03:53:52 0° 16° (NNE) 3,246 6.5 -33.4°
Reaches altitude 10° 03:56:13 10° 20° (NNE) 2,315 5.7 -33.0°
Enters shadow 03:58:40 28° 31° (NNE) 1,412 4.6 -32.6°
